Regional Weather Roundup
Issued by NWS

Home | Current Version | Previous Version | Graphics & Text | Print | Product List | Glossary On
Versions: 1 2 3 4 5 6 7 8 9 10 11 12 13 14 15 16 17 18 19 20 21 22 23 24 25 26
000
ASUS45 KPSR 251410
RWRAZ

ARIZONA HOURLY REGIONAL WEATHER ROUNDUP
NATIONAL WEATHER SERVICE PHOENIX AZ
700 AM MST WED MAY 25 2016

NOTE: FAIR INDICATES FEW OR NO CLOUDS BELOW 12,000 FEET WITH NO
SIGNIFICANT WEATHER AND/OR OBSTRUCTIONS TO VISIBILITY.

AZZ001>003-036-251500-
NORTHWEST ARIZONA

CITY           SKY/WX    TMP DP  RH WIND       PRES   REMARKS
BULLHEAD CITY  SUNNY     68  32  26 S3        29.95R
KINGMAN        SUNNY     55  19  24 CALM      30.00R
$$

AZZ004>008-015-016-018-251500-
NORTH CENTRAL ARIZONA

CITY           SKY/WX    TMP DP  RH WIND       PRES   REMARKS
GRAND CANYON   SUNNY     41  19  41 CALM      30.12F
WILLIAMS       SUNNY     48  14  25 CALM      30.19S
PRESCOTT       SUNNY     49  23  36 S3        30.07S
FLAGSTAFF      SUNNY     47  24  40 NE3       30.14R
PAYSON         SUNNY     50  27  40 CALM      30.12R
PAGE           SUNNY     59  19  21 CALM      30.04R
$$

AZZ009>014-017-251500-
NORTHEAST ARIZONA

CITY           SKY/WX    TMP DP  RH WIND       PRES   REMARKS
WINSLOW        SUNNY     52  22  30 SE8       30.11R
SAINT JOHNS    SUNNY     51  24  34 CALM      30.13R
WINDOW ROCK    SUNNY     48  21  34 CALM      30.17S
SHOW LOW       SUNNY     52  25  35 S7        30.16R
$$

AZZ023-251500-
GREATER PHOENIX AREA

CITY           SKY/WX    TMP DP  RH WIND       PRES   REMARKS
PHOENIX        SUNNY     68  32  26 E6        29.93R
BUCKEYE        SUNNY     64  25  22 N3        29.96S
GLENDALE       SUNNY     66  28  24 CALM      29.96R
LUKE AFB       SUNNY     65  27  23 NW5       29.94R
DEER VALLEY    SUNNY     67  22  18 E5        29.95R
SCOTTSDALE     SUNNY     66  33  29 CALM      29.97R
MESA-GATEWAY   SUNNY     64  30  27 E7        29.97R
CHANDLER       SUNNY     66  41  39 E5        29.95R
$$

AZZ027-028-251500-
SOUTHWEST MARICOPA COUNTY AND PINAL COUNTY

CITY           SKY/WX    TMP DP  RH WIND       PRES   REMARKS
CASA GRANDE    SUNNY     66  36  32 CALM      29.97R
GILA BEND      SUNNY     66  27  23 SE2       29.94R
$$

AZZ503-504-507>509-251500-
SOUTHEAST ARIZONA

CITY           SKY/WX    TMP DP  RH WIND       PRES   REMARKS
TUCSON         SUNNY     64  34  32 SE8       30.03R
DAVIS-MONTHAN  SUNNY     67  33  28 S9        30.02R
RYAN FIELD     SUNNY     61  34  36 CALM      30.03R
NOGALES        SUNNY     62  28  27 S3        30.08R
SIERRA VISTA   SUNNY     67  19  16 VRB3      30.11R
DOUGLAS        SUNNY     65  19  17 SE3       30.10R
SAFFORD        SUNNY     63  24  22 SE6       30.03R
$$

AZZ020-021-025-026-031-251500-
SOUTHWEST ARIZONA

CITY           SKY/WX    TMP DP  RH WIND       PRES   REMARKS
YUMA           NOT AVBL
$$

CAZ031-033-041-043-047-048-061-251500-
SOUTHERN CALIFORNIA

CITY           SKY/WX    TMP DP  RH WIND       PRES   REMARKS
DOWNTOWN L.A.  MOSUNNY   59  52  77 CALM      30.05R
L.A. AIRPORT   MOSUNNY   58  51  78 SE3       30.06R
SAN DIEGO      PTSUNNY   62  53  72 NE5       30.08R
BURBANK        CLOUDY    56  47  71 CALM      30.05R
ONTARIO        PTSUNNY   56  50  80 VRB6      30.05R
RIVERSIDE      PTSUNNY   57  49  74 VRB3      30.06R
PALM SPRINGS   SUNNY     64  34  32 W6        29.95R
EL CENTRO NAS  MOSUNNY   63  40  42 W13       29.97R
IMPERIAL       SUNNY     64  41  42 W13       29.94R
BLYTHE         SUNNY     59  44  57 CALM      29.93R
NEEDLES        SUNNY     69  39  33 SW12      29.92R
$$

NVZ020-UTZ003-251500-
SOUTHERN NEVADA-UTAH

CITY           SKY/WX    TMP DP  RH WIND       PRES   REMARKS
LAS VEGAS      MOSUNNY   63  37  38 SW5       29.91R
SALT LAKE CITY PTSUNNY   55  42  61 E3        30.01R
$$

NMZ009-TXZ055-251500-
NEW MEXICO-WEST TEXAS

CITY           SKY/WX    TMP DP  RH WIND       PRES   REMARKS
ALBUQUERQUE    SUNNY     62  14  15 NW6       30.15R
EL PASO        SUNNY     72  24  16 CALM      30.09R
$$


........................KEY........................
SKY/WX - SKY CONDITION/WEATHER
TMP    - TEMPERATURE IN FAHRENHEIT
DP     - DEW POINT IN FAHRENHEIT
RH     - RELATIVE HUMIDITY IN PERCENT
WIND   - DIRECTION AND SPEED IN MILES PER HOUR (MPH)
VRB    - VARIABLE WIND DIRECTION
PRES   - MEAN SEA LEVEL PRESSURE IN INCHES OF MERCURY
         F - FALLING PRESSURE   R - RISING PRESSURE
         S - STEADY PRESSURE
VSB    - VISIBILITY IN MILES
HX     - HEAT INDEX IN FAHRENHEIT
WCI    - WIND CHILL INDEX IN FAHRENHEIT
TC     - TEMPERATURE IN CELSIUS WHICH IS ALSO KNOWN AS
         TEMPERATURE IN CENTIGRADE
AFB    - AIR FORCE BASE
         LUKE AFB IS LUKE AIR FORCE BASE
         DAVIS-MONTHAN IS DAVIS-MONTHAN AIR FORCE BASE
NAS    - NAVAL AIR STATION
         EL CENTRO NAS IS EL CENTRO NAVAL AIR STATION
N/A    - NOT AVAILABLE





USA.gov is the U.S. government's official web portal to all federal, state and local government web resources and services.